Location: St. Louis
(38.6270°N, 90.1994°W)
Time: 07:02:08
(UTC-06:00)

Transit 2A Rocket - Pass Details

Date: 05 December 2021
Orbit: 584 x 917 km, 66.7° (Epoch: 23 January)

Event Time Altitude Azimuth Distance (km) Brightness Sun altitude
Rises 06:16:03 0° 184° (S) 3,241 8.5 -9.3°
Reaches altitude 10° 06:18:30 10° 176° (S) 2,369 7.9 -8.8°
Maximum altitude 06:23:33 38° 109° (ESE) 1,266 6.9 -7.9°
Drops below altitude 10° 06:28:59 10° 44° (NE) 2,556 8.0 -6.9°
Sets 06:31:42 0° 37° (NE) 3,528 8.6 -6.4°
